Kalispell, MT

3:44 AM MST on February 22, 2017 (GMT -0700)
Glacier Park International

Weather History for KGPI - November, 2011

Change the Weather History Date:

Sunday, November 20, 2011

  Actual Average Record
Temperature  
Mean Temperature 20 °F 30 °F  
Max Temperature 24 °F 37 °F 53 °F (1971)
Min Temperature 16 °F 23 °F -16 °F (1977)
Degree Days  
Heating Degree Days 45 35  
Month to date heating degree days 717 630  
Since 1 July heating degree days 1751 1838  
Cooling Degree Days 0 0  
Month to date cooling degree days 0 0  
Year to date cooling degree days 97 147  
Moisture  
Dew Point 15 °F    
Average Humidity 85    
Maximum Humidity 92    
Minimum Humidity 77    
Precipitation  
Precipitation 0.01 in 0.05 in 0.41 in (2012)
Month to date precipitation 0.31 0.95  
Year to date precipitation 15.32 14.95  
Snow  
Snow 0.10 in - - ()
Month to date snowfall 2.1  
Year to date snowfall 29.1  
Since 1 July snowfall 2.1  
Snow Depth 1.00 in    
Sea Level Pressure  
Sea Level Pressure 30.00 in    
Wind  
Wind Speed 0 mph (West)    
Max Wind Speed 9 mph    
Max Gust Speed 28 mph    
Visibility 8 miles    
Events Snow    
T = Trace of Precipitation, MM = Missing Value Source: NWS Daily Summary

Daily Weather History Graph

Daily Weather History Graph

Search for Another Location

Airport or City:

Trip Planner

Search our weather history database for the weather conditions in past years. The results will help you decide how hot, cold, wet, or windy it might be!

Date:

Astronomy

Nov. 20, 2011 Rise Set
Actual Time 7:51 AM MST 4:53 PM MST
Civil Twilight 7:16 AM MST 5:27 PM MST
Nautical Twilight 6:38 AM MST 6:06 PM MST
Astronomical Twilight 6:01 AM MST 6:43 PM MST
Moon 2:02 AM MST (11/20) 2:04 PM MST (11/20)
Length of Visible Light 10h 10m
Length of Day
9h 01m
Waning Crescent, 26% of the Moon is Illuminated
Nov 20
Waning Crescent
Nov 24
New
Dec 2
First Quarter
Dec 10
Full
Dec 17
Last Quarter

Hourly Weather History & Observations

Time (MST) Temp. Windchill Dew Point Humidity Pressure Visibility Wind Dir Wind Speed Gust Speed Precip Events Conditions
12:02 AM 15.8 °F - 12.2 °F 86% 29.88 in 6.0 mi Calm Calm - N/A Snow Light Snow
12:55 AM 16.0 °F - 12.0 °F 84% 30.02 in 6.0 mi Calm Calm - 0.00 in Snow Light Snow
1:55 AM 16.0 °F - 12.9 °F 88% 30.02 in 4.0 mi Calm Calm - 0.00 in Snow Light Snow
2:21 AM 15.8 °F - 12.2 °F 86% 29.89 in 1.8 mi Calm Calm - 0.00 in Snow Light Snow
2:28 AM 15.8 °F - 12.2 °F 86% 29.89 in 2.5 mi Calm Calm - 0.01 in Snow Light Snow
2:40 AM 15.8 °F - 12.2 °F 86% 29.89 in 4.0 mi Calm Calm - 0.01 in Snow Light Snow
2:55 AM 16.0 °F - 12.9 °F 88% 30.03 in 7.0 mi Calm Calm - 0.01 in Snow Light Snow
3:55 AM 16.0 °F - 12.0 °F 84% 30.02 in 9.0 mi Calm Calm - 0.00 in Snow Light Snow
4:55 AM 16.0 °F - 12.9 °F 88% 30.02 in 6.0 mi Calm Calm - 0.00 in Snow Light Snow
5:08 AM 17.6 °F - 12.2 °F 79% 29.88 in 9.0 mi Calm Calm - 0.00 in   Overcast
5:55 AM 17.1 °F - 12.9 °F 84% 30.03 in 10.0 mi Calm Calm - 0.00 in   Overcast
6:55 AM 17.1 °F - 12.9 °F 84% 30.03 in 10.0 mi Calm Calm - N/A   Overcast
7:55 AM 17.1 °F - 12.9 °F 84% 30.03 in 10.0 mi Calm Calm - N/A   Overcast
8:55 AM 18.0 °F - 14.0 °F 84% 30.05 in 10.0 mi Calm Calm - N/A   Overcast
9:55 AM 19.0 °F 13.9 °F 14.0 °F 81% 30.05 in 9.0 mi West 3.5 mph - 0.00 in Snow Light Snow
10:55 AM 19.9 °F - 16.0 °F 85% 30.06 in 7.0 mi Calm Calm - 0.00 in Snow Light Snow
11:13 AM 19.4 °F - 15.8 °F 86% 29.92 in 4.0 mi Calm Calm - 0.00 in Snow Light Snow
11:55 AM 21.9 °F - 16.0 °F 78% 30.05 in 4.0 mi Calm Calm - 0.00 in Snow Light Snow
12:55 PM 21.9 °F - 17.1 °F 82% 30.04 in 8.0 mi Calm Calm - 0.00 in Snow Light Snow
1:55 PM 23.0 °F - 17.1 °F 78% 30.04 in 9.0 mi Calm Calm - 0.00 in Snow Light Snow
2:55 PM 23.0 °F - 17.1 °F 78% 30.03 in 9.0 mi Calm Calm - 0.00 in Snow Light Snow
3:55 PM 24.1 °F - 17.1 °F 75% 30.04 in 9.0 mi Calm Calm - 0.00 in Snow Light Snow
4:55 PM 23.0 °F - 18.0 °F 81% 30.03 in 6.0 mi Calm Calm - 0.00 in Snow Light Snow
5:55 PM 21.9 °F - 18.0 °F 85% 30.04 in 10.0 mi Calm Calm - 0.00 in   Overcast
6:55 PM 21.9 °F - 18.0 °F 85% 30.04 in 10.0 mi Calm Calm - N/A   Overcast
7:55 PM 21.9 °F - 19.0 °F 89% 30.03 in 9.0 mi Calm Calm - N/A   Overcast
8:55 PM 23.0 °F - 19.0 °F 85% 30.02 in 10.0 mi Calm Calm - N/A   Overcast
9:55 PM 23.0 °F - 19.0 °F 85% 30.02 in 10.0 mi Calm Calm - N/A   Overcast
10:55 PM 23.0 °F - 19.0 °F 85% 30.02 in 10.0 mi Calm Calm - N/A   Overcast
11:55 PM 23.0 °F - 19.0 °F 85% 30.01 in 10.0 mi Calm Calm - N/A   Overcast